| time (UTC) | temp F | wind direction | speed MPH | gust MPH | rain 1hr in | rain 24hr in | rain mn in | humidity % | barometer mb |
| 20260906000003 | 54 | 278 | 0.0 | 2.0 | 0.00 | 0.15 | 0.03 | 77 | 1019.2 |
| 20260905235403 | 54 | 262 | 0.0 | 3.0 | 0.00 | 0.16 | 0.03 | 77 | 1019.2 |
| 20260905234503 | 54 | 178 | 1.0 | 4.0 | 0.00 | 0.16 | 0.03 | 76 | 1019.4 |
| 20260905233603 | 54 | 213 | 1.0 | 4.0 | 0.00 | 0.16 | 0.03 | 77 | 1019.6 |
| 20260905232703 | 54 | 226 | 1.0 | 4.0 | 0.00 | 0.16 | 0.03 | 78 | 1019.5 |
| 20260905231803 | 54 | 240 | 1.0 | 4.0 | 0.00 | 0.16 | 0.03 | 78 | 1019.5 |
| 20260905230903 | 54 | 233 | 1.0 | 6.0 | 0.00 | 0.16 | 0.03 | 82 | 1019.4 |
| 20260905230004 | 53 | 270 | 1.0 | 4.0 | 0.00 | 0.16 | 0.03 | 78 | 1019.6 |
| 20260905225403 | 53 | 271 | 1.0 | 4.0 | 0.00 | 0.16 | 0.03 | 80 | 1019.5 |
| 20260905224717 | 52 | 235 | 0.0 | 3.0 | 0.00 | 0.16 | 0.03 | 82 | 1019.5 |
| 20260905223603 | 53 | 230 | 1.0 | 5.0 | 0.00 | 0.16 | 0.03 | 83 | 1019.6 |
| 20260905222703 | 53 | 183 | 2.0 | 6.0 | 0.02 | 0.16 | 0.03 | 85 | 1019.9 |
| 20260905221803 | 53 | 223 | 1.0 | 7.0 | 0.02 | 0.16 | 0.03 | 86 | 1019.4 |
| 20260905220903 | 54 | 252 | 0.0 | 2.0 | 0.02 | 0.16 | 0.03 | 87 | 1019.7 |
| 20260905220003 | 54 | 281 | 0.0 | 3.0 | 0.02 | 0.16 | 0.03 | 87 | 1019.4 |
| 20260905215617 | 54 | 329 | 0.0 | 2.0 | 0.02 | 0.16 | 0.03 | 87 | 1019.5 |
| 20260905214503 | 53 | 358 | 0.0 | 2.0 | 0.02 | 0.16 | 0.03 | 85 | 1019.4 |
| 20260905213603 | 55 | 89 | 1.0 | 4.0 | 0.02 | 0.15 | 0.03 | 76 | 1019.3 |
| 20260905212703 | 56 | 131 | 2.0 | 5.0 | 0.00 | 0.13 | 0.01 | 69 | 1019.3 |
| 20260905212017 | 57 | 101 | 1.0 | 5.0 | 0.00 | 0.13 | 0.01 | 68 | 1019.2 |
| 20260905210903 | 58 | 146 | 2.0 | 5.0 | 0.00 | 0.14 | 0.01 | 66 | 1019.5 |
| 20260905210003 | 60 | 166 | 2.0 | 6.0 | 0.00 | 0.14 | 0.01 | 67 | 1019.3 |
| 20260905205403 | 60 | 165 | 4.0 | 8.0 | 0.00 | 0.14 | 0.01 | 64 | 1019.3 |
| 20260905204718 | 60 | 166 | 4.0 | 9.0 | 0.00 | 0.14 | 0.01 | 69 | 1019.4 |
| 20260905203817 | 59 | 168 | 3.0 | 8.0 | 0.00 | 0.14 | 0.01 | 64 | 1019.4 |
| 20260905202703 | 58 | 169 | 3.0 | 7.0 | 0.00 | 0.14 | 0.01 | 72 | 1019.6 |
| 20260905201803 | 58 | 171 | 3.0 | 7.0 | 0.00 | 0.14 | 0.01 | 68 | 1019.4 |
| 20260905200904 | 57 | 229 | 1.0 | 6.0 | 0.00 | 0.14 | 0.01 | 76 | 1019.6 |
| 20260905200005 | 56 | 263 | 1.0 | 4.0 | 0.00 | 0.15 | 0.01 | 79 | 1019.4 |
| 20260905195403 | 56 | 238 | 1.0 | 5.0 | 0.00 | 0.15 | 0.01 | 80 | 1019.6 |
| 20260905194718 | 56 | 132 | 1.0 | 5.0 | 0.00 | 0.15 | 0.01 | 78 | 1019.4 |
| 20260905193603 | 55 | 199 | 1.0 | 4.0 | 0.00 | 0.15 | 0.01 | 75 | 1019.6 |
| 20260905192703 | 55 | 314 | 1.0 | 3.0 | 0.00 | 0.15 | 0.01 | 78 | 1019.8 |
| 20260905191803 | 56 | 27 | 1.0 | 4.0 | 0.00 | 0.15 | 0.01 | 76 | 1020.1 |
| 20260905190903 | 56 | 141 | 2.0 | 5.0 | 0.00 | 0.15 | 0.01 | 82 | 1020.2 |
| 20260905190218 | 56 | 167 | 3.0 | 6.0 | 0.00 | 0.15 | 0.01 | 75 | 1019.9 |
| 20260905185403 | 55 | 170 | 4.0 | 8.0 | 0.00 | 0.15 | 0.01 | 79 | 1020.1 |
| 20260905184503 | 54 | 180 | 2.0 | 8.0 | 0.00 | 0.15 | 0.01 | 90 | 1020.3 |
| 20260905183603 | 53 | 181 | 2.0 | 6.0 | 0.00 | 0.15 | 0.01 | 89 | 1020.2 |
| 20260905182703 | 52 | 174 | 2.0 | 5.0 | 0.00 | 0.15 | 0.01 | 90 | 1020.1 |
| 20260905181803 | 51 | 136 | 2.0 | 6.0 | 0.00 | 0.15 | 0.01 | 89 | 1020.3 |
| 20260905181116 | 51 | 125 | 1.0 | 4.0 | 0.00 | 0.15 | 0.01 | 90 | 1020.5 |
| 20260905180218 | 50 | 92 | 1.0 | 3.0 | 0.00 | 0.15 | 0.01 | 92 | 1020.2 |
| 20260905175404 | 50 | 41 | 1.0 | 5.0 | 0.00 | 0.15 | 0.01 | 94 | 1020.6 |
| 20260905174503 | 49 | 188 | 1.0 | 3.0 | 0.00 | 0.15 | 0.01 | 96 | 1020.5 |
| 20260905173603 | 49 | 171 | 0.0 | 3.0 | 0.00 | 0.15 | 0.01 | 96 | 1020.4 |
| 20260905172703 | 49 | 133 | 0.0 | 2.0 | 0.00 | 0.15 | 0.01 | 97 | 1020.6 |
| 20260905171803 | 49 | 179 | 1.0 | 3.0 | 0.00 | 0.15 | 0.01 | 97 | 1020.4 |
| 20260905170903 | 50 | 154 | 1.0 | 5.0 | 0.00 | 0.15 | 0.01 | 97 | 1020.5 |
| 20260905170003 | 49 | 157 | 1.0 | 5.0 | 0.00 | 0.15 | 0.01 | 97 | 1020.4 |
| 20260905165403 | 49 | 159 | 2.0 | 5.0 | 0.00 | 0.15 | 0.01 | 98 | 1020.6 |
| 20260905164503 | 48 | 144 | 2.0 | 5.0 | 0.00 | 0.15 | 0.01 | 98 | 1020.3 |
| 20260905163603 | 47 | 162 | 2.0 | 5.0 | 0.00 | 0.15 | 0.01 | 99 | 1020.4 |
| 20260905162917 | 46 | 165 | 2.0 | 4.0 | 0.00 | 0.15 | 0.01 | 99 | 1020.4 |
| 20260905161803 | 44 | 157 | 1.0 | 4.0 | 0.00 | 0.15 | 0.01 | 99 | 1020.5 |
| 20260905160903 | 44 | 139 | 1.0 | 4.0 | 0.00 | 0.15 | 0.01 | 99 | 1020.4 |
| 20260905160217 | 44 | 123 | 1.0 | 3.0 | 0.00 | 0.15 | 0.01 | 99 | 1021.0 |
| 20260905155403 | 43 | 132 | 1.0 | 4.0 | 0.00 | 0.15 | 0.01 | 99 | 1020.7 |
| 20260905154503 | 43 | 154 | 1.0 | 2.0 | 0.00 | 0.15 | 0.01 | 99 | 1020.6 |
| 20260905153604 | 43 | 146 | 1.0 | 3.0 | 0.00 | 0.15 | 0.01 | 99 | 1020.5 |
| 20260905152917 | 42 | 137 | 1.0 | 4.0 | 0.00 | 0.15 | 0.01 | 99 | 1020.4 |
| 20260905151803 | 42 | 139 | 1.0 | 3.0 | 0.00 | 0.15 | 0.01 | 99 | 1020.6 |
| 20260905150903 | 42 | 114 | 2.0 | 6.0 | 0.00 | 0.15 | 0.01 | 99 | 1020.2 |
| 20260905150217 | 42 | 114 | 2.0 | 6.0 | 0.00 | 0.15 | 0.01 | 99 | 1020.3 |
| 20260905145404 | 42 | 126 | 2.0 | 4.0 | 0.00 | 0.15 | 0.01 | 99 | 1020.5 |
| 20260905144503 | 42 | 119 | 1.0 | 5.0 | 0.00 | 0.15 | 0.01 | 99 | 1020.6 |
| 20260905143604 | 42 | 116 | 1.0 | 5.0 | 0.00 | 0.15 | 0.01 | 99 | 1020.3 |
| 20260905142703 | 42 | 117 | 3.0 | 5.0 | 0.00 | 0.15 | 0.01 | 99 | 1020.2 |
| 20260905142018 | 42 | 118 | 2.0 | 5.0 | 0.00 | 0.15 | 0.01 | 99 | 1020.2 |
| 20260905140903 | 41 | 117 | 2.0 | 4.0 | 0.00 | 0.15 | 0.01 | 99 | 1020.1 |
| 20260905140003 | 41 | 114 | 2.0 | 4.0 | 0.00 | 0.15 | 0.01 | 99 | 1019.9 |
| 20260905135405 | 41 | 113 | 2.0 | 4.0 | 0.00 | 0.15 | 0.01 | 99 | 1019.9 |
| 20260905134503 | 41 | 111 | 2.0 | 6.0 | 0.00 | 0.15 | 0.01 | 99 | 1019.9 |
| 20260905133603 | 41 | 112 | 2.0 | 5.0 | 0.00 | 0.15 | 0.01 | 99 | 1019.9 |
| 20260905132703 | 40 | 82 | 1.0 | 3.0 | 0.00 | 0.15 | 0.01 | 98 | 1019.8 |
| 20260905131803 | 41 | 109 | 1.0 | 6.0 | 0.00 | 0.15 | 0.01 | 98 | 1019.7 |
| 20260905130905 | 40 | 109 | 2.0 | 6.0 | 0.00 | 0.15 | 0.01 | 98 | 1019.9 |
| 20260905130003 | 40 | 104 | 1.0 | 5.0 | 0.00 | 0.15 | 0.01 | 98 | 1019.9 |
| 20260905125403 | 40 | 106 | 1.0 | 5.0 | 0.00 | 0.15 | 0.01 | 99 | 1019.5 |
| 20260905124503 | 40 | 62 | 1.0 | 4.0 | 0.00 | 0.15 | 0.01 | 98 | 1019.4 |
| 20260905123603 | 40 | 40 | 1.0 | 2.0 | 0.00 | 0.15 | 0.01 | 98 | 1019.5 |
| 20260905122703 | 40 | 76 | 0.0 | 2.0 | 0.00 | 0.15 | 0.00 | 98 | 1019.5 |
| 20260905121803 | 40 | 37 | 1.0 | 2.0 | 0.00 | 0.15 | 0.00 | 97 | 1019.6 |
| 20260905120905 | 41 | 22 | 1.0 | 2.0 | 0.00 | 0.15 | 0.00 | 97 | 1019.4 |
| 20260905120003 | 41 | 44 | 0.0 | 3.0 | 0.00 | 0.15 | 0.00 | 97 | 1019.3 |
| 20260905115403 | 42 | 85 | 1.0 | 4.0 | 0.00 | 0.15 | 0.00 | 98 | 1019.3 |
| 20260905114503 | 42 | 113 | 1.0 | 4.0 | 0.00 | 0.15 | 0.00 | 98 | 1019.4 |
| 20260905113818 | 42 | 114 | 1.0 | 4.0 | 0.00 | 0.15 | 0.00 | 98 | 1019.5 |
| 20260905112704 | 42 | 122 | 1.0 | 5.0 | 0.00 | 0.15 | 0.00 | 98 | 1019.5 |
| 20260905111803 | 42 | 105 | 1.0 | 7.0 | 0.00 | 0.15 | 0.00 | 98 | 1019.7 |
| 20260905110903 | 42 | 117 | 2.0 | 4.0 | 0.00 | 0.15 | 0.00 | 98 | 1019.5 |
| 20260905110003 | 42 | 118 | 1.0 | 4.0 | 0.00 | 0.15 | 0.00 | 98 | 1019.4 |
| 20260905105617 | 42 | 119 | 1.0 | 4.0 | 0.00 | 0.15 | 0.00 | 98 | 1019.7 |
| 20260905104718 | 42 | 125 | 1.0 | 4.0 | 0.00 | 0.15 | 0.00 | 98 | 1019.6 |
| 20260905103603 | 42 | 101 | 1.0 | 4.0 | 0.00 | 0.15 | 0.00 | 98 | 1019.4 |
| 20260905102919 | 42 | 107 | 1.0 | 4.0 | 0.00 | 0.15 | 0.00 | 98 | 1019.4 |
| 20260905101803 | 43 | 118 | 1.0 | 5.0 | 0.00 | 0.15 | 0.00 | 98 | 1019.7 |
| 20260905100905 | 42 | 98 | 1.0 | 5.0 | 0.00 | 0.15 | 0.00 | 98 | 1019.6 |
| 20260905100003 | 43 | 112 | 1.0 | 5.0 | 0.00 | 0.15 | 0.00 | 98 | 1019.4 |
| 20260905095403 | 43 | 105 | 1.0 | 5.0 | 0.00 | 0.15 | 0.00 | 98 | 1019.4 |
| 20260905094718 | 43 | 107 | 2.0 | 5.0 | 0.00 | 0.15 | 0.00 | 98 | 1019.3 |
| 20260905093603 | 43 | 112 | 2.0 | 6.0 | 0.00 | 0.15 | 0.00 | 98 | 1019.5 |
| 20260905092703 | 43 | 115 | 1.0 | 5.0 | 0.00 | 0.15 | 0.00 | 97 | 1019.4 |
| 20260905091803 | 44 | 121 | 2.0 | 4.0 | 0.00 | 0.15 | 0.00 | 98 | 1019.3 |
| 20260905090903 | 44 | 113 | 2.0 | 6.0 | 0.00 | 0.15 | 0.00 | 98 | 1019.4 |
| 20260905090003 | 44 | 113 | 2.0 | 6.0 | 0.00 | 0.15 | 0.00 | 98 | 1019.3 |
| 20260905085403 | 44 | 113 | 2.0 | 6.0 | 0.00 | 0.15 | 0.00 | 98 | 1019.0 |
| 20260905084503 | 44 | 104 | 1.0 | 5.0 | 0.00 | 0.15 | 0.00 | 98 | 1019.3 |
| 20260905083603 | 44 | 88 | 0.0 | 3.0 | 0.00 | 0.16 | 0.00 | 97 | 1018.8 |
| 20260905082705 | 44 | 43 | 0.0 | 3.0 | 0.00 | 0.16 | 0.00 | 97 | 1019.0 |
| 20260905082017 | 44 | 44 | 0.0 | 3.0 | 0.00 | 0.16 | 0.00 | 97 | 1018.9 |
| 20260905080903 | 44 | 81 | 1.0 | 4.0 | 0.00 | 0.16 | 0.00 | 98 | 1018.9 |
| 20260905080004 | 45 | 116 | 1.0 | 6.0 | 0.00 | 0.17 | 0.00 | 97 | 1018.8 |
| 20260905075403 | 45 | 117 | 1.0 | 5.0 | 0.00 | 0.17 | 0.00 | 97 | 1018.8 |
| 20260905074503 | 45 | 110 | 2.0 | 5.0 | 0.00 | 0.17 | 0.00 | 97 | 1018.7 |
| 20260905073603 | 45 | 122 | 2.0 | 4.0 | 0.00 | 0.17 | 0.00 | 97 | 1018.7 |
| 20260905072703 | 46 | 110 | 2.0 | 5.0 | 0.00 | 0.17 | 0.00 | 97 | 1018.7 |
| 20260905071803 | 46 | 93 | 1.0 | 6.0 | 0.00 | 0.17 | 0.00 | 97 | 1018.8 |
| 20260905070903 | 46 | 118 | 2.0 | 6.0 | 0.00 | 0.17 | 0.00 | 97 | 1018.7 |
| 20260905070003 | 46 | 111 | 2.0 | 6.0 | 0.00 | 0.17 | 0.00 | 98 | 1018.5 |
| 20260905065403 | 46 | 113 | 3.0 | 7.0 | 0.00 | 0.17 | 0.17 | 98 | 1018.6 |
| 20260905064503 | 46 | 117 | 3.0 | 7.0 | 0.00 | 0.17 | 0.17 | 98 | 1018.5 |
| 20260905063605 | 46 | 121 | 3.0 | 7.0 | 0.00 | 0.17 | 0.17 | 98 | 1018.4 |
| 20260905062704 | 47 | 120 | 3.0 | 7.0 | 0.00 | 0.18 | 0.17 | 98 | 1018.5 |
| 20260905061803 | 47 | 122 | 2.0 | 6.0 | 0.00 | 0.18 | 0.17 | 98 | 1018.1 |
| 20260905060903 | 47 | 114 | 2.0 | 6.0 | 0.00 | 0.18 | 0.17 | 98 | 1018.3 |
| 20260905060005 | 47 | 125 | 2.0 | 6.0 | 0.00 | 0.19 | 0.17 | 98 | 1018.4 |
| 20260905055403 | 47 | 134 | 2.0 | 6.0 | 0.00 | 0.19 | 0.17 | 98 | 1018.3 |
| 20260905054503 | 47 | 124 | 2.0 | 4.0 | 0.00 | 0.20 | 0.17 | 98 | 1018.3 |
| 20260905053818 | 47 | 111 | 1.0 | 4.0 | 0.00 | 0.20 | 0.17 | 98 | 1018.5 |
| 20260905052917 | 47 | 111 | 1.0 | 4.0 | 0.00 | 0.21 | 0.17 | 98 | 1018.1 |
| 20260905051803 | 47 | 116 | 2.0 | 9.0 | 0.00 | 0.22 | 0.17 | 98 | 1018.1 |
| 20260905050903 | 47 | 117 | 2.0 | 6.0 | 0.00 | 0.23 | 0.17 | 98 | 1018.3 |
| 20260905050003 | 47 | 119 | 2.0 | 5.0 | 0.00 | 0.24 | 0.17 | 98 | 1018.5 |
| 20260905045405 | 47 | 119 | 1.0 | 5.0 | 0.00 | 0.24 | 0.17 | 98 | 1018.4 |
| 20260905044503 | 47 | 136 | 2.0 | 7.0 | 0.00 | 0.24 | 0.17 | 98 | 1018.4 |
| 20260905043603 | 47 | 142 | 2.0 | 7.0 | 0.00 | 0.24 | 0.17 | 98 | 1018.3 |
| 20260905042703 | 47 | 127 | 2.0 | 6.0 | 0.00 | 0.25 | 0.17 | 98 | 1018.3 |
| 20260905041803 | 47 | 144 | 2.0 | 7.0 | 0.00 | 0.26 | 0.17 | 98 | 1018.0 |
| 20260905040904 | 47 | 147 | 2.0 | 7.0 | 0.00 | 0.26 | 0.17 | 98 | 1017.9 |
| 20260905040005 | 47 | 152 | 2.0 | 7.0 | 0.00 | 0.27 | 0.17 | 98 | 1017.9 |
| 20260905035403 | 47 | 136 | 1.0 | 4.0 | 0.00 | 0.27 | 0.17 | 98 | 1018.0 |
| 20260905034503 | 47 | 143 | 1.0 | 4.0 | 0.00 | 0.28 | 0.17 | 98 | 1018.0 |
| 20260905033603 | 47 | 142 | 2.0 | 4.0 | 0.00 | 0.28 | 0.17 | 98 | 1018.0 |
| 20260905032703 | 47 | 156 | 2.0 | 5.0 | 0.00 | 0.28 | 0.17 | 98 | 1017.7 |
| 20260905031803 | 47 | 156 | 2.0 | 3.0 | 0.01 | 0.29 | 0.17 | 98 | 1017.8 |
| 20260905030903 | 47 | 154 | 2.0 | 5.0 | 0.01 | 0.29 | 0.17 | 98 | 1017.5 |
| 20260905030005 | 47 | 155 | 2.0 | 6.0 | 0.01 | 0.30 | 0.17 | 97 | 1017.6 |
| 20260905025618 | 47 | 151 | 2.0 | 7.0 | 0.01 | 0.29 | 0.17 | 97 | 1017.4 |
| 20260905024503 | 47 | 152 | 3.0 | 5.0 | 0.01 | 0.30 | 0.17 | 97 | 1017.1 |
| 20260905023603 | 48 | 143 | 2.0 | 6.0 | 0.02 | 0.30 | 0.17 | 97 | 1017.1 |
| 20260905022703 | 48 | 143 | 2.0 | 5.0 | 0.02 | 0.31 | 0.17 | 97 | 1017.1 |
| 20260905021803 | 49 | 139 | 2.0 | 4.0 | 0.02 | 0.31 | 0.17 | 97 | 1016.8 |
| 20260905020903 | 49 | 141 | 2.0 | 7.0 | 0.03 | 0.31 | 0.17 | 97 | 1016.9 |
| 20260905020003 | 49 | 152 | 1.0 | 3.0 | 0.04 | 0.31 | 0.17 | 98 | 1017.0 |
| 20260905015403 | 49 | 150 | 2.0 | 5.0 | 0.04 | 0.31 | 0.16 | 98 | 1016.7 |
| 20260905014504 | 49 | 161 | 2.0 | 4.0 | 0.04 | 0.31 | 0.16 | 97 | 1016.5 |
| 20260905013603 | 49 | 165 | 3.0 | 7.0 | 0.04 | 0.31 | 0.15 | 97 | 1016.6 |
| 20260905012703 | 50 | 164 | 2.0 | 5.0 | 0.05 | 0.30 | 0.15 | 98 | 1016.7 |
| 20260905012017 | 50 | 165 | 2.0 | 6.0 | 0.06 | 0.30 | 0.15 | 98 | 1016.6 |
| 20260905011118 | 50 | 166 | 3.0 | 6.0 | 0.06 | 0.29 | 0.14 | 97 | 1016.5 |
| 20260905010003 | 50 | 160 | 2.0 | 4.0 | 0.07 | 0.28 | 0.13 | 98 | 1016.4 |
| 20260905005403 | 50 | 156 | 1.0 | 2.0 | 0.07 | 0.28 | 0.12 | 97 | 1016.1 |
| 20260905004503 | 50 | 153 | 2.0 | 3.0 | 0.07 | 0.28 | 0.12 | 97 | 1015.9 |
| 20260905003603 | 50 | 163 | 1.0 | 3.0 | 0.06 | 0.27 | 0.11 | 97 | 1016.0 |
| 20260905002917 | 50 | 153 | 1.0 | 3.0 | 0.06 | 0.26 | 0.10 | 97 | 1015.9 |
| 20260905001803 | 50 | 166 | 0.0 | 2.0 | 0.04 | 0.24 | 0.08 | 97 | 1015.7 |
| 20260905000903 | 50 | 160 | 1.0 | 2.0 | 0.02 | 0.23 | 0.07 | 97 | 1015.9 |